Regional Weather Roundup
Issued by NWS

Home | Current Version | Previous Version | Text Only | Print | Product List | Glossary Off
Versions: 1 2 3 4 5 6 7 8 9 10 11 12 13 14 15 16 17 18 19 20 21 22 23 24 25 26 27 28 29 30 31 32 33 34 35 36 37 38 39 40 41 42 43 44 45 46 47 48 49 50

000
ASUS45 KCYS 151210
RWRWY

WYOMING REGIONAL WEATHER ROUNDUP
NATIONAL WEATHER SERVICE CHEYENNE WY
600 AM MDT MON SEP 15 2014

NOTE:  "FAIR" INDICATES FEW OR NO CLOUDS BELOW 12,000 FEET
WITH NO SIGNIFICANT WEATHER AND/OR OBSTRUCTIONS TO VISIBILITY.

WYZ001-151300-
YELLOWSTONE NATIONAL PARK

CITY           SKY/WX    TMP DP  RH WIND       PRES   REMARKS
LK YELLOWSTONE   N/A     29  26  89 CALM      30.34S
6HR MIN TEMP:  28; 6HR MAX TEMP:  35;

W YELLOWSTONE  NOT AVBL

$$
WYZ002>013-054>058-071-098>099-151300-
NORTHERN WYOMING

CITY           SKY/WX    TMP DP  RH WIND       PRES   REMARKS
JACKSON        PTCLDY    37  28  70 CALM      30.29R
CODY           CLEAR     45  37  76 S5        30.25R
GREYBULL       CLEAR     41  38  89 SE5       30.24R
6HR MIN TEMP:  41; 6HR MAX TEMP:  53;

WORLAND        CLEAR     42  38  85 SE3       30.24S
6HR MIN TEMP:  38; 6HR MAX TEMP:  49;

SHERIDAN       CLEAR     36  32  85 CALM      30.22F
6HR MIN TEMP:  34; 6HR MAX TEMP:  45;

BUFFALO        CLEAR     41  32  70 S6        30.26S
6HR MIN TEMP:  40; 6HR MAX TEMP:  48;

GILLETTE       CLEAR     41  37  86 S3        30.25S
6HR MIN TEMP:  34; 6HR MAX TEMP:  41;

HULETT         FAIR      36  36 100 MISG      30.27
NEWCASTLE      FAIR      36  36 100 N3        30.29

$$
WYZ014>020-022>026-101>103-151300-
CENTRAL WYOMING

CITY           SKY/WX    TMP DP  RH WIND       PRES   REMARKS
BIG PINEY      PTCLDY    38  24  57 CALM      30.33R
6HR MIN TEMP:  33; 6HR MAX TEMP:  43;

PINEDALE       MOSUNNY   30  25  80 W6        30.35R WCI  24
DUBOIS         FAIR      34  27  75 NW9       30.34S WCI  26
LANDER         PTCLDY    44  33  65 W7        30.29R
6HR MIN TEMP:  43; 6HR MAX TEMP:  52;

RIVERTON       PTCLDY    38  33  82 N7        30.29R WCI  33
6HR MIN TEMP:  38; 6HR MAX TEMP:  50;

CASPER         CLEAR     33  32  96 CALM      30.30R
6HR MIN TEMP:  32; 6HR MAX TEMP:  47;

DOUGLAS        CLEAR     37  35  92 CALM      30.30S
6HR MIN TEMP:  36; 6HR MAX TEMP:  43;


$$
WYZ021-027>030-104>119-151300-
SOUTHERN WYOMING

CITY           SKY/WX    TMP DP  RH WIND       PRES   REMARKS
EVANSTON       MOCLDY    52  34  50 SE10      30.28S
6HR MIN TEMP:  49; 6HR MAX TEMP:  57;

KEMMERER       MOSUNNY   45  30  57 N7        30.31R
FORT BRIDGER   CLOUDY    49  34  56 NW10      30.34R
ROCK SPRINGS   PTCLDY    44  32  62 E6        30.31R
6HR MIN TEMP:  44; 6HR MAX TEMP:  59;

DIXON          FAIR      41  34  76 CALM      30.33R
RAWLINS        CLEAR     42  39  89 CALM      30.33R
6HR MIN TEMP:  42; 6HR MAX TEMP:  47;

SARATOGA       FAIR      34  32  93 CALM      30.34R
LARAMIE        PTCLDY    39  38  96 S5        30.35R
6HR MIN TEMP:  38; 6HR MAX TEMP:  50;

CHEYENNE       CLEAR     43  39  86 NW8       30.32R
6HR MIN TEMP:  43; 6HR MAX TEMP:  47;

TORRINGTON     PTCLDY    37  35  92 W5        30.29R WCI  33
6HR MIN TEMP:  37; 6HR MAX TEMP:  45;

PINE BLUFFS    FOG       36  36 100 NW5       30.32R VSB 1/4 WCI  32

$$



USA.gov is the U.S. government's official web portal to all federal, state and local government web resources and services.